• In Uzbekistan
  • List of Countries
  • For 7 days
  • Water Temperature
  • Satellite Maps
  • Weather Map
  • Weather Widgets
  • user-avatar
    Login

    Hourly Weather Punakha

    Today, 25 April, Thursday

    Time Temperature Precipitation Wind Pressure Humidity
    00:00 +13°C° 0 mm 2 mps 586 mmHg 66%
    01:00 +13°C° 0 mm 2 mps 586 mmHg 64%
    02:00 +13°C° 0 mm 2 mps 585 mmHg 62%
    03:00 +12°C° 0 mm 2 mps 585 mmHg 60%
    04:00 +12°C° 0 mm 2 mps 585 mmHg 58%
    05:00 +13°C° 0 mm 2 mps 585 mmHg 55%
    06:00 +13°C° 0 mm 2 mps 585 mmHg 52%
    07:00 +16°C° 0 mm 2 mps 587 mmHg 44%
    08:00 +19°C° 0 mm 2 mps 589 mmHg 36%
    09:00 +23°C° 0 mm 2 mps 590 mmHg 28%
    10:00 +24°C° 0 mm 2 mps 590 mmHg 28%
    11:00 +25°C° 0 mm 2 mps 590 mmHg 29%
    12:00 +26°C° 0 mm 3 mps 591 mmHg 29%
    13:00 +26°C° 0.1 mm 3 mps 590 mmHg 33%
    14:00 +25°C° 0.1 mm 3 mps 589 mmHg 36%
    15:00 +25°C° 0.1 mm 3 mps 588 mmHg 40%
    16:00 +22°C° 0.1 mm 3 mps 588 mmHg 49%
    17:00 +20°C° 0.1 mm 2 mps 587 mmHg 58%
    18:00 +19°C° 0.1 mm 2 mps 586 mmHg 67%
    19:00 +18°C° 0 mm 1 mps 586 mmHg 72%
    20:00 +16°C° 0 mm 1 mps 586 mmHg 77%
    21:00 +15°C° 0 mm 1 mps 586 mmHg 82%
    22:00 +14°C° 0 mm 1 mps 586 mmHg 79%
    23:00 +14°C° 0 mm 1 mps 586 mmHg 76%

    Tomorrow, 26 April, Friday

    Time Temperature Precipitation Wind Pressure Humidity
    00:00 +14°C° 0 mm 1 mps 585 mmHg 73%
    01:00 +13°C° 0 mm 1 mps 585 mmHg 70%
    02:00 +13°C° 0 mm 1 mps 585 mmHg 68%
    03:00 +13°C° 0 mm 1 mps 584 mmHg 65%
    04:00 +13°C° 0 mm 1 mps 584 mmHg 63%
    05:00 +13°C° 0 mm 1 mps 584 mmHg 60%
    06:00 +13°C° 0 mm 1 mps 584 mmHg 57%
    07:00 +16°C° 0 mm 2 mps 586 mmHg 51%
    08:00 +19°C° 0 mm 2 mps 587 mmHg 45%
    09:00 +23°C° 0 mm 2 mps 589 mmHg 39%
    10:00 +24°C° 0 mm 2 mps 589 mmHg 39%
    11:00 +25°C° 0 mm 2 mps 589 mmHg 39%
    12:00 +26°C° 0 mm 3 mps 589 mmHg 39%
    13:00 +25°C° 0 mm 3 mps 589 mmHg 42%
    14:00 +25°C° 0 mm 3 mps 588 mmHg 45%
    15:00 +25°C° 0 mm 3 mps 587 mmHg 48%
    16:00 +22°C° 0 mm 3 mps 586 mmHg 56%
    17:00 +20°C° 0 mm 2 mps 585 mmHg 64%
    18:00 +19°C° 0 mm 2 mps 585 mmHg 71%
    19:00 +19°C° 0 mm 1 mps 585 mmHg 76%
    20:00 +18°C° 0 mm 1 mps 585 mmHg 80%
    21:00 +16°C° 0 mm 1 mps 585 mmHg 85%
    22:00 +15°C° 0 mm 1 mps 585 mmHg 82%
    23:00 +15°C° 0 mm 1 mps 585 mmHg 80%

    Day after tomorrow, 27 April, Saturday

    Time Temperature Precipitation Wind Pressure Humidity
    00:00 +15°C° 0 mm 1 mps 585 mmHg 78%
    01:00 +14°C° 0 mm 1 mps 585 mmHg 76%
    02:00 +14°C° 0 mm 1 mps 584 mmHg 74%
    03:00 +14°C° 0 mm 1 mps 584 mmHg 71%
    04:00 +14°C° 0 mm 1 mps 584 mmHg 70%
    05:00 +14°C° 0 mm 1 mps 584 mmHg 68%
    06:00 +14°C° 0 mm 1 mps 585 mmHg 67%
    07:00 +18°C° 0 mm 1 mps 586 mmHg 61%
    08:00 +19°C° 0 mm 2 mps 587 mmHg 54%
    09:00 +23°C° 0 mm 2 mps 589 mmHg 48%
    10:00 +23°C° 0 mm 2 mps 588 mmHg 48%
    11:00 +24°C° 0 mm 3 mps 588 mmHg 49%
    12:00 +24°C° 0 mm 3 mps 588 mmHg 49%
    13:00 +24°C° 0.1 mm 3 mps 587 mmHg 52%
    14:00 +22°C° 0.1 mm 3 mps 586 mmHg 54%
    15:00 +21°C° 0.1 mm 3 mps 585 mmHg 57%
    16:00 +20°C° 0 mm 2 mps 584 mmHg 62%
    17:00 +19°C° 0 mm 2 mps 584 mmHg 67%
    18:00 +19°C° 0 mm 1 mps 583 mmHg 73%
    19:00 +18°C° 0 mm 1 mps 584 mmHg 77%
    20:00 +16°C° 0 mm 1 mps 584 mmHg 81%
    21:00 +14°C° 0 mm 0 mps 584 mmHg 85%
    22:00 +15°C° 0 mm 1 mps 584 mmHg 84%
    23:00 +15°C° 0 mm 1 mps 584 mmHg 82%

    28 April, Sunday

    Time Temperature Precipitation Wind Pressure Humidity
    00:00 +14°C° 0 mm 1 mps 584 mmHg 81%
    01:00 +14°C° 0.1 mm 1 mps 583 mmHg 78%
    02:00 +14°C° 0.1 mm 1 mps 583 mmHg 75%
    03:00 +14°C° 0.1 mm 1 mps 583 mmHg 72%
    04:00 +14°C° 0 mm 1 mps 583 mmHg 71%
    05:00 +14°C° 0 mm 1 mps 583 mmHg 70%
    06:00 +14°C° 0 mm 1 mps 583 mmHg 68%
    07:00 +18°C° 0 mm 1 mps 585 mmHg 62%
    08:00 +19°C° 0 mm 2 mps 586 mmHg 57%
    09:00 +23°C° 0 mm 2 mps 588 mmHg 51%
    10:00 +24°C° 0.1 mm 2 mps 587 mmHg 51%
    11:00 +24°C° 0.1 mm 3 mps 587 mmHg 51%
    12:00 +25°C° 0.1 mm 3 mps 587 mmHg 51%
    13:00 +24°C° 0.2 mm 3 mps 586 mmHg 56%
    14:00 +22°C° 0.2 mm 3 mps 585 mmHg 60%
    15:00 +21°C° 0.2 mm 3 mps 584 mmHg 64%
    16:00 +20°C° 0.2 mm 2 mps 584 mmHg 69%
    17:00 +19°C° 0.2 mm 2 mps 583 mmHg 74%
    18:00 +19°C° 0.2 mm 1 mps 583 mmHg 79%
    19:00 +18°C° 0 mm 1 mps 583 mmHg 82%
    20:00 +16°C° 0 mm 1 mps 584 mmHg 85%
    21:00 +15°C° 0 mm 0 mps 584 mmHg 88%
    22:00 +14°C° 0 mm 0 mps 584 mmHg 87%
    23:00 +15°C° 0 mm 1 mps 584 mmHg 87%

    29 April, Monday

    Time Temperature Precipitation Wind Pressure Humidity
    00:00 +14°C° 0 mm 1 mps 584 mmHg 86%
    01:00 +14°C° 0 mm 1 mps 583 mmHg 84%
    02:00 +14°C° 0 mm 1 mps 583 mmHg 82%
    03:00 +14°C° 0 mm 1 mps 583 mmHg 79%
    04:00 +14°C° 0 mm 1 mps 583 mmHg 77%
    05:00 +14°C° 0 mm 1 mps 583 mmHg 75%
    06:00 +14°C° 0 mm 1 mps 584 mmHg 73%
    07:00 +18°C° 0 mm 1 mps 585 mmHg 65%
    08:00 +20°C° 0 mm 1 mps 587 mmHg 58%
    09:00 +23°C° 0 mm 2 mps 588 mmHg 50%
    10:00 +24°C° 0 mm 2 mps 588 mmHg 48%
    11:00 +25°C° 0 mm 3 mps 588 mmHg 45%
    12:00 +26°C° 0 mm 3 mps 588 mmHg 43%
    13:00 +26°C° 0.1 mm 3 mps 587 mmHg 45%
    14:00 +26°C° 0.1 mm 3 mps 586 mmHg 47%
    15:00 +25°C° 0.1 mm 3 mps 586 mmHg 49%
    16:00 +24°C° 0.1 mm 3 mps 585 mmHg 57%
    17:00 +21°C° 0.1 mm 2 mps 584 mmHg 64%
    18:00 +19°C° 0.1 mm 2 mps 584 mmHg 71%
    19:00 +19°C° 0 mm 1 mps 584 mmHg 77%
    20:00 +18°C° 0 mm 1 mps 584 mmHg 83%
    21:00 +16°C° 0 mm 1 mps 584 mmHg 89%
    22:00 +15°C° 0 mm 1 mps 584 mmHg 87%
    23:00 +15°C° 0 mm 1 mps 584 mmHg 84%

    30 April, Tuesday

    Time Temperature Precipitation Wind Pressure Humidity
    00:00 +15°C° 0 mm 1 mps 584 mmHg 82%
    01:00 +14°C° 0 mm 1 mps 583 mmHg 80%
    02:00 +14°C° 0 mm 1 mps 583 mmHg 77%
    03:00 +14°C° 0 mm 1 mps 582 mmHg 74%
    04:00 +14°C° 0 mm 1 mps 583 mmHg 71%
    05:00 +14°C° 0 mm 1 mps 583 mmHg 68%
    06:00 +14°C° 0 mm 1 mps 584 mmHg 66%
    07:00 +17°C° 0 mm 2 mps 585 mmHg 60%
    08:00 +20°C° 0 mm 2 mps 586 mmHg 55%
    09:00 +23°C° 0 mm 2 mps 587 mmHg 49%
    10:00 +24°C° 0 mm 2 mps 587 mmHg 48%
    11:00 +25°C° 0 mm 3 mps 587 mmHg 46%
    12:00 +26°C° 0 mm 3 mps 587 mmHg 45%
    13:00 +26°C° 0.1 mm 3 mps 587 mmHg 47%
    14:00 +26°C° 0.1 mm 3 mps 586 mmHg 50%
    15:00 +25°C° 0.1 mm 3 mps 585 mmHg 52%
    16:00 +24°C° 0.1 mm 3 mps 584 mmHg 59%
    17:00 +21°C° 0.1 mm 2 mps 584 mmHg 66%
    18:00 +20°C° 0.1 mm 2 mps 583 mmHg 74%
    19:00 +19°C° 0 mm 1 mps 583 mmHg 79%
    20:00 +18°C° 0 mm 1 mps 583 mmHg 85%
    21:00 +15°C° 0 mm 0 mps 584 mmHg 90%
    22:00 +16°C° 0 mm 1 mps 583 mmHg 89%
    23:00 +16°C° 0 mm 1 mps 583 mmHg 88%
    Show more